AirNav   Air Wisconsin Up To $57,000 Bonus
 
 1392 users online  

KBST Belfast Municipal Airport
Belfast, Maine, USA

GOING TO BELFAST?


FAA INFORMATION EFFECTIVE 10 OCTOBER 2019

Location

FAA Identifier: BST
Lat/Long: 44-24-33.8000N 069-00-42.6000W
44-24.563333N 069-00.710000W
44.4093889,-69.0118333
(estimated)
Elevation: 197.6 ft. / 60.2 m (surveyed)
Variation: 18W (2000)
From city: 1 mile SW of BELFAST, ME
Time zone: UTC -4 (UTC -5 during Standard Time)
Zip code: 04915

Airport Operations

Airport use: Open to the public
Activation date: 03/1943
Control tower: no
ARTCC: BOSTON CENTER
FSS: BANGOR FLIGHT SERVICE STATION
NOTAMs facility: BGR (NOTAM-D service available)
Attendance: IREG
Wind indicator: lighted
Segmented circle: yes
Lights: ACTVT REIL RWY 15 & 33; MIRL RWY 15/33 - CTAF.
Beacon: white-green (lighted land airport)
Operates sunset to sunrise.

Airport Communications

CTAF/UNICOM: 122.975
WX AWOS-AV: 122.975 (207-930-7071)
BANGOR APPROACH: 118.925
BANGOR DEPARTURE: 118.925

Nearby radio navigation aids

VOR radial/distance  VOR name  Freq  Var
BGRr212/26.6BANGOR VORTAC114.8019W
AUGr099/34.1AUGUSTA VOR/DME111.4018W

 
NDB name  Hdg/Dist  Freq  Var  ID
SPRUCEHEAD029/21.935618WSUH ... ..- ....
BURNHAM157/22.834818WBUP -... ..- .--.

Airport Services

Parking: hangars and tiedowns
Airframe service: MINOR
Powerplant service: MINOR
Bottled oxygen: NONE
Bulk oxygen: NONE

Runway Information

Runway 15/33

Dimensions: 4000 x 100 ft. / 1219 x 30 m
Surface: asphalt, in excellent condition
Weight bearing capacity: 
Single wheel: 30.0
Runway edge lights: medium intensity
RUNWAY 15  RUNWAY 33
Latitude: 44-24.789857N44-24.337253N
Longitude: 069-01.043273W069-00.376365W
Elevation: 197.5 ft.158.5 ft.
Traffic pattern: leftleft
Runway heading: 151 magnetic, 133 true331 magnetic, 313 true
Markings: nonprecision, in good conditionnonprecision, in good condition
Runway end identifier lights: yesyes
Touchdown point: yes, no lightsyes, no lights
Obstructions: 35 ft. tree, lighted, 210 ft. from runway, 255 ft. right of centerline
RWY 15 +55 FT TREES 0 FT TO 200 FT FROM THR, 240 FT RIGHT OF CNTRLN; +17 FT TREES 0 FT TO 100 FT FROM THR, 245 FT LEFT OF CNTRLN.
33 ft. trees, 765 ft. from runway, 260 ft. left of centerline, 17:1 slope to clear
RWY 33 + 4 FT BRUSH 10 FT TO 25 FT FM THR, 81 FT RIGHT OF CNTRLN; + 10 FT TREES 40 FT TO 175 FT FM THR, 190 FT TO 230 FT RIGHT OF CNTRLN.

Airport Ownership and Management from official FAA records

Ownership: Publicly-owned
Owner: CITY OF BELFAST
CITY HALL 131 CHURCH ST (TOP FLOOR)
BELFAST, ME 04915
Phone 207-338-3370X600
Manager: THOMAS KITTREDGE
CITY HALL 131 CHURCH ST
BELFAST, ME 04915
Phone 207-338-3370X600
ARPT DIR.

Airport Operational Statistics

Aircraft based on the field: 15
Single engine airplanes: 14
Ultralights: 1
    
Aircraft operations: avg 27/day *
60% local general aviation
20% transient general aviation
20% air taxi
* for 12-month period ending 09 August 2017

Additional Remarks

CALL AHD FOR FBO SVCS - (207) 338-0298 FOR DG AVN LLC OR (207) 338-4456 FOR SEAVIEW AVN.
FMI: WWW.CITYOFBELFAST.ORG/AIRPORT.
FOR CD CTC BANGOR APCH AT 207-561-2521.
80 FT TALL OBSTN LGTS ALG BOTH SIDES OF PRI SFC AND TREE LINE.
GND TRNSPN AVBL.
AWOS AVBL VIA CTAF - 2 CLICKS OR CALL (207) 930-7071, ALSO WWW.DIGIWX-BST.COM.
FREE UNSECURED WIFI AVBL.
DEER & BIRDS ON OR INVOF ARPT.
SFC COND RPRTD MON-FRI 1400-2200Z DEC-MAR.

Instrument Procedures

NOTE: All procedures below are presented as PDF files. If you need a reader for these files, you should download the free Adobe Reader.

NOT FOR NAVIGATION. Please procure official charts for flight.
FAA instrument procedures published for use from 10 October 2019 at 0901Z to 17 November 2019 at 0900Z.

 
IAPs - Instrument Approach Procedures
RNAV (GPS) RWY 15   download (226KB)
RNAV (GPS) RWY 33   download (261KB)
NOTE: Special Take-Off Minimums/Departure Procedures apply   download (178KB)

Other nearby airports with instrument procedures:

KRKD - Knox County Regional Airport (21 nm S)
KBGR - Bangor International Airport (25 nm N)
2B7 - Pittsfield Municipal Airport (27 nm NW)
KBHB - Hancock County-Bar Harbor Airport (28 nm E)
KWVL - Waterville Robert LaFleur Airport (29 nm W)
 
Loc | Ops | Rwys | IFR | FBO | Links
Com | Nav | Svcs | Stats | Notes
Area around KBST (Belfast Municipal Airport)
 
Road maps at: MapQuest Bing Google
 
Aerial photo
WARNING: Photo may not be current or correct
Aerial photo of KBST (Belfast Municipal Airport)
Photo by Kyle Warren Photography
Photo taken 20-Feb-2017
looking northwest.

Do you have a better or more recent aerial photo of Belfast Municipal Airport that you would like to share? If so, please send us your photo.

 
Sectional chart

 
Airport distance calculator
Flying to Belfast Municipal Airport? Find the distance to fly.

From to KBST

Sunrise and sunset
Times for 18-Oct-2019
 Local
(UTC-4)
 Zulu
(UTC)
Morning civil twilight06:2610:26
Sunrise06:5610:56
Sunset17:4721:47
Evening civil twilight18:1622:16

Current date and time
Zulu (UTC)  18-Oct-2019 18:24:04
Local (UTC-4)  18-Oct-2019 14:24:04
 
METAR
KRKD 
21nm S 
181756Z AUTO 32010G17KT 10SM -RA BKN050 OVC060 13/03 A2957 RMK AO2 RAB56 SLP013 P0000 60000 T01280028 10128 20078 53004
KBGR 
25nm N 
181753Z 31014G21KT 10SM FEW039 OVC055 12/03 A2955 RMK AO2 SLP007 T01170033 10117 20067 51010
KBHB 
28nm E 
181756Z AUTO 34009G18KT 310V010 10SM SCT039 BKN049 OVC060 12/03 A2955 RMK AO2 RAB17E39 SLP009 P0000 60000 T01170033 10117 20072 51007
KWVL 
29nm W 
181756Z AUTO 30015G21KT 10SM -RA FEW028 BKN046 BKN060 12/04 A2957 RMK AO2 RAB10 SLP040 P0000 60000 T01170044 10133 20078 52012
KAUG 
34nm W 
181753Z AUTO 29011G23KT 10SM SCT039 BKN055 13/04 A2960 RMK AO2 PK WND 29026/1657 SLP025 T01280039 10133 20078 51010
KIWI 
40nm SW 
181753Z AUTO 31008G20KT 250V050 10SM FEW045 BKN060 13/03 A2961 RMK AO2 SLP028 T01330028 10144 20083 53005
TAF
KRKD 
21nm S 
181722Z 1818/1918 29012G19KT P6SM SCT050 TEMPO 1818/1822 BKN050
KBGR 
25nm N 
181720Z 1818/1918 30010G19KT P6SM BKN035 FM182200 30009KT P6SM BKN035 FM190000 30008KT P6SM SCT035 FM191300 31008KT P6SM SCT050
NOTAMs
Click for the latest NOTAMs
NOTAMs are issued by the DoD/FAA and will open in a separate window not controlled by AirNav.

 

 
 

Would you like to see your business listed on this page?

 If your business provides an interesting product or service to pilots, flight crews, aircraft, or users of the Belfast Municipal Airport, you should consider listing it here.  To start the listing process, click on the button below
 
Add a business
 

Other Pages about Belfast Municipal Airport

www.cityofbelfast.org/index.aspx?NID=147
 
Update a link
 
Copyright © AirNav, LLC. All rights reserved. Privacy Policy  Contact